George, South Africa

6:57 AM SAST on April 27, 2018 (GMT +0200)
George

Weather History for FAGG - April, 2014

Change the Weather History Date:

Tuesday, April 1, 2014

  Actual Average Record
Temperature  
Mean Temperature 65 °F -  
Max Temperature 72 °F 70 °F 89 °F (2002)
Min Temperature 58 °F 53 °F 50 °F (2012)
Growing Degree Days 15 (Base 50)    
Moisture  
Dew Point 54 °F    
Average Humidity 72    
Maximum Humidity 94    
Minimum Humidity 47    
Precipitation  
Precipitation 0.00 in - - ()
Sea Level Pressure  
Sea Level Pressure 29.84 in    
Wind  
Wind Speed 8 mph ()    
Max Wind Speed 16 mph    
Max Gust Speed -    
Visibility 7.0 miles    
Events      
Averages and records for this station are not official NWS values.
T = Trace of Precipitation, MM = Missing Value Source: Averaged Metar Reports

Daily Weather History Graph

Daily Weather History Graph

Search for Another Location

Airport or City:

Astronomy

Apr. 01, 2014 Rise Set
Actual Time 6:42 AM SAST 6:25 PM SAST
Civil Twilight 6:17 AM SAST 6:50 PM SAST
Nautical Twilight 5:48 AM SAST 7:19 PM SAST
Astronomical Twilight 5:19 AM SAST 7:48 PM SAST
Moon 8:18 AM SAST (4/1) 7:32 PM SAST (4/1)
Length of Visible Light 12h 33m
Length of Day
11h 43m
Waxing Crescent, 3% of the Moon is Illuminated
Apr 1
Waxing Crescent
Apr 7
First Quarter
Apr 15
Full
Apr 22
Last Quarter
Apr 29
New

Hourly Weather History & Observations

Time (SAST) Temp. Dew Point Humidity Pressure Visibility Wind Dir Wind Speed Gust Speed Precip Events Conditions
12:00 AM 60.8 °F 59.0 °F 94% 29.89 in 3.1 mi NW 3.5 mph - N/A   Overcast
1:00 AM 60.8 °F 59.0 °F 94% 29.86 in 2.5 mi WSW 4.6 mph - N/A   Mostly Cloudy
2:00 AM 58 °F 57 °F 94% 29.87 in 2 mi West 11.5 mph - -  
2:00 AM 59.0 °F 57.2 °F 94% 29.86 in - West 10.4 mph - N/A   Mostly Cloudy
3:00 AM 59.0 °F 55.4 °F 88% 29.83 in 6.2 mi WNW 9.2 mph - N/A   Overcast
4:00 AM 59.0 °F 55.4 °F 88% 29.83 in 6.2 mi NW 5.8 mph - N/A   Overcast
5:00 AM 59 °F 56 °F 87% 29.82 in 12 mi NNW 4.6 mph - -   Overcast
5:00 AM 59.0 °F 55.4 °F 88% 29.80 in 6.2 mi NNW 4.6 mph - N/A   Overcast
6:00 AM 60.8 °F 55.4 °F 82% 29.83 in 6.2 mi NW 5.8 mph - N/A   Overcast
7:00 AM 59.0 °F 53.6 °F 82% 29.83 in 6.2 mi WNW 5.8 mph - N/A   Partly Cloudy
8:00 AM 62 °F 55 °F 73% 29.88 in 12 mi West 9.2 mph - -   Partly Cloudy
8:00 AM 62.6 °F 55.4 °F 77% 29.86 in 6.2 mi West 9.2 mph - N/A   Scattered Clouds
9:00 AM 64.4 °F 53.6 °F 68% 29.89 in 6.2 mi West 12.7 mph - N/A   Partly Cloudy
10:00 AM 64.4 °F 53.6 °F 68% 29.89 in 6.2 mi West 16.1 mph - N/A   Partly Cloudy
11:00 AM 66 °F 54 °F 56% 29.88 in 12 mi WSW 12.7 mph - -   Scattered Clouds
11:00 AM 66.2 °F 53.6 °F 64% 29.86 in 6.2 mi WSW 12.7 mph - N/A   Partly Cloudy
12:00 PM 68.0 °F 53.6 °F 60% 29.86 in 6.2 mi West 16.1 mph - N/A   Scattered Clouds
1:00 PM 69.8 °F 55.4 °F 60% 29.83 in 6.2 mi WSW 15.0 mph - N/A   Scattered Clouds
2:00 PM 70 °F 54 °F 47% 29.83 in 12 mi SW 13.8 mph - -   Partly Cloudy
2:00 PM 69.8 °F 53.6 °F 56% 29.80 in 6.2 mi SW 13.8 mph - N/A   Scattered Clouds
3:00 PM 68.0 °F 53.6 °F 60% 29.80 in 6.2 mi SW 12.7 mph - N/A   Scattered Clouds
4:00 PM 66.2 °F 55.4 °F 68% 29.80 in 6.2 mi SSW 12.7 mph - N/A   Scattered Clouds
5:00 PM 65 °F 55 °F 63% 29.81 in 12 mi ESE 11.5 mph - -   Mostly Cloudy
5:00 PM 66.2 °F 55.4 °F 68% 29.80 in 6.2 mi SSW 11.5 mph - N/A   Mostly Cloudy
6:00 PM 64.4 °F 55.4 °F 73% 29.80 in 6.2 mi SW 8.1 mph - N/A   Mostly Cloudy
7:00 PM 64.4 °F 53.6 °F 68% 29.83 in 6.2 mi SW 11.5 mph - N/A   Mostly Cloudy
8:00 PM 62 °F 52 °F 62% 29.86 in 12 mi WSW 12.7 mph - -   Mostly Cloudy
8:00 PM 62.6 °F 51.8 °F 68% 29.86 in 6.2 mi WSW 12.7 mph - N/A   Mostly Cloudy
9:00 PM 60.8 °F 50.0 °F 68% 29.86 in 6.2 mi West 6.9 mph - N/A   Overcast
10:00 PM 60.8 °F 48.2 °F 63% 29.86 in 6.2 mi WSW 10.4 mph - N/A   Overcast
11:00 PM 60.8 °F 46.4 °F 59% 29.86 in 6.2 mi WSW 8.1 mph - N/A   Mostly Cloudy